Location: ???????
(38.2141°N, 23.5514°E)
Time: 00:17:33
(UTC+00:00)

Daily predictions for brighter satellites

Satellite Brightness Start Highest point End
(mag) Time Altitude Azimuth Time Altitude Azimuth Time Altitude Azimuth
CZ-2C R/B 4.5 01:15:19 10° NE 01:17:30 22° NE 01:17:30 22° NE
ATLAS 2AS CENTAUR R/B 4.4 01:22:05 23° NNW 01:22:05 23° NNW 01:26:09 10° NNE
ATLAS 3B R/B 4.1 01:27:32 30° SSE 01:27:32 30° SSE 01:30:55 10° SSE
BREEZE-M DEB (TANK) 4.2 01:33:36 58° E 01:33:36 58° E 01:43:56 10° NE
CZ-2C R/B 4.2 01:35:23 10° N 01:38:52 39° N 01:38:52 39° N
Cosmos 1867 4.1 01:52:32 46° N 01:53:48 58° ENE 01:59:09 10° SE
GP-B 3.9 02:00:52 49° NE 02:00:52 49° NE 02:04:36 10° N
NOSS 3-1 (A) 4.0 01:55:42 16° NW 02:02:23 82° WSW 02:11:32 10° SSE
Meteor 1-10 Rocket 4.1 02:02:12 74° SSE 02:02:36 80° E 02:08:10 10° NNE
Sich 1 3.8 02:00:02 10° N 02:04:16 50° E 02:04:46 47° ESE
USA 281 4.4 02:03:06 10° N 02:07:16 26° NW 02:07:16 26° NW
BlueWalker 3 3.1 02:13:43 41° NE 02:13:43 41° NE 02:17:05 10° ESE
IRS-1D 4.1 02:09:40 10° N 02:13:40 46° NNW 02:13:40 46° NNW
Cosmos 2297 Rocket 2.6 02:13:12 31° S 02:15:48 61° ESE 02:21:22 10° NNE
Envisat 2.8 02:12:17 10° N 02:17:22 81° WNW 02:17:38 78° WSW
Nadezhda 2 Rocket 4.5 02:23:50 43° SW 02:25:54 64° W 02:32:18 10° N
Cosmos 2237 Rocket 3.4 02:24:32 10° N 02:29:56 43° ENE 02:35:17 10° SE
METEOR-M 4.5 02:27:50 10° N 02:32:41 44° WNW 02:32:41 44° WNW
Cosmos 1536 3.7 02:29:44 10° N 02:39:26 - S 02:32:05 35° NNW
OAO 2 Rocket 4.5 02:36:29 27° SSW 02:36:29 27° SSW 02:40:04 10° SE
Delta 2 Rocket 4.3 02:36:56 39° SSW 02:37:05 39° SSW 02:41:50 10° SE
YAOGAN 11 4.1 02:36:41 10° S 02:41:07 59° W 02:45:31 10° NNW
Okean 1 3.0 02:40:42 56° SSW 02:41:28 85° W 02:45:19 10° N
Cosmos 2322 4.0 02:43:22 39° W 02:44:06 41° WSW 02:49:21 10° S
SL-08 R/B 4.5 02:41:15 24° SSW 02:44:52 56° W 02:50:51 10° N
Nadezhda 1 Rocket 4.0 02:43:28 10° N 02:49:46 87° E 02:55:55 10° S
COBE Rocket 4.0 02:45:47 10° N 02:50:30 52° WNW 02:52:53 28° SW
Cosmos 1726 3.9 02:48:29 10° NNE 02:51:35 31° E 02:54:39 10° SE
NOSS 0 Rocket 3.8 02:45:22 10° NNW 02:51:37 78° WSW 02:57:50 10° SSE
H-2A R/B 3.0 02:48:38 10° NNE 02:52:05 59° E 02:55:29 10° S
IRS-1C 4.5 02:47:06 10° NNE 02:52:25 66° ESE 02:57:41 10° S
COSMOS 2428 2.9 02:47:20 10° NW 02:52:43 45° WSW 02:58:06 10° S
ERS-2 3.8 02:51:47 10° NE 02:54:35 29° E 02:57:23 10° SSE
USA 215 3.3 02:48:41 10° SE 02:55:14 81° NE 03:01:48 10° NW
CBERS-1 4.2 02:50:25 10° N 02:55:22 51° WNW 02:58:27 22° SW
Cosmos 1151 Rocket 3.3 02:54:47 38° WSW 02:55:46 45° W 02:59:59 10° N
CZ-2C R/B 3.5 02:53:42 10° NNW 02:56:50 23° NW 02:56:50 23° NW
Cosmos 2227 Rocket 2.2 02:56:54 10° SSW 03:02:34 84° ESE 03:08:16 10° NNE
Meteor 2-20 Rocket 4.5 02:58:25 10° N 03:04:40 85° E 03:10:36 10° S
Cosmos 2263 Rocket 4.4 03:01:22 10° SSE 03:05:55 26° ESE 03:10:28 10° NE
Cosmos 1328 Rocket 3.4 03:02:15 10° S 03:06:40 77° W 03:11:04 10° N
Cosmos 44 Rocket 4.0 03:05:11 27° W 03:07:07 38° NW 03:11:55 10° NNE
COSMO-SKYMED 1 4.5 03:04:48 10° SE 03:08:40 33° ENE 03:12:33 10° N
ARIANE 5 R/B 2.5 03:03:39 10° NNE 03:08:41 84° ESE 03:13:39 10° SSW
Meteor 1-27 Rocket 4.1 03:04:34 13° SW 03:09:14 42° WNW 03:14:39 10° N
Cosmos 1733 4.2 03:06:50 10° N 03:10:24 46° E 03:13:56 10° SSE
Cosmos 1666 Rocket 3.4 03:06:08 10° N 03:10:29 74° W 03:14:47 10° S
DMSP B5D2-2 4.0 03:06:52 10° S 03:12:03 62° W 03:17:17 10° NNW
Meteor 2-20 4.5 03:06:50 10° NNW 03:12:51 57° W 03:18:49 10° S
ATLAS 3B R/B 4.4 03:14:59 15° WSW 03:14:59 15° WSW 03:17:18 10° SW
Meteor 1-19 Rocket 4.4 03:13:30 10° SSW 03:18:50 45° WNW 03:24:05 10° N
Cosmos 1709 Rocket 4.0 03:13:16 10° SSW 03:19:37 75° W 03:26:01 10° N
Helios 1A 2.9 03:17:04 10° S 03:21:07 61° W 03:25:10 10° NNW
CZ-2D R/B 3.6 03:18:27 10° NNE 03:22:49 84° ESE 03:27:10 10° SSW
Cosmos 1269 Rocket 3.9 03:21:13 10° NNW 03:26:29 72° WSW 03:31:42 10° S
IRS-P3 4.1 03:21:14 10° N 03:26:34 74° WNW 03:31:52 10° SSW
Meteor 2-4 Rocket 3.8 03:23:22 10° S 03:29:17 81° W 03:35:09 10° N
Cosmos 614 Rocket 4.1 03:27:23 10° NNW 03:32:22 51° WSW 03:37:21 10° S
Cosmos 1980 3.9 03:30:25 10° NNW 03:35:51 49° WSW 03:41:16 10° S
Cosmos 1805 3.5 03:33:01 10° N 03:36:47 70° E 03:40:33 10° SSE
USA 229 DEB 4.4 03:29:42 10° NW 03:36:51 44° WSW 03:44:23 10° S
USA 229 4.4 03:29:47 10° NW 03:36:57 44° WSW 03:44:28 10° S
Cosmos 1633 Rocket 3.4 03:34:57 10° NNW 03:39:06 42° W 03:43:14 10° SSW
Meteor 1-18 Rocket 4.3 03:34:16 10° SSW 03:40:07 70° W 03:45:55 10° N
Cosmos 1484 Rocket 4.3 03:40:19 10° NNW 03:42:33 16° WNW 03:44:38 11° WSW
ATLAS CENTAUR R/B 3.2 03:39:36 10° N 03:42:40 26° NE 03:45:44 10° ESE
H-2A R/B 2.1 03:39:09 10° N 03:44:33 69° WNW 03:49:51 10° SSW
Aureole 3 4.0 03:46:06 10° SSE 03:49:00 43° E 03:51:50 10° NNE
NOSS 3-3 (A) 4.2 03:46:11 10° SSW 03:51:23 66° ESE 03:57:22 10° NE
NOSS 3-3 (C) 4.2 03:46:13 10° SSW 03:51:25 64° ESE 03:57:22 10° NE
BlueWalker 3 3.3 03:48:37 10° WNW 03:51:39 22° SW 03:54:42 10° S
PSLV R/B 3.5 03:51:58 10° NNE 03:56:07 87° ESE 04:00:15 10° SSW
SKYMED 2 3.5 03:52:18 10° S 03:56:36 69° WSW 04:00:57 10° NNW
Cosmos 2251 Rocket 4.4 03:53:01 10° N 03:58:09 54° ENE 04:03:15 10° SE
SAR-Lupe-2 3.7 03:54:44 10° NNE 03:58:19 82° ESE 04:01:53 10° S
CZ-2C R/B 4.1 03:55:29 10° NNE 03:59:04 44° E 04:02:34 10° S
Cosmos 2074 Rocket 4.2 03:54:03 10° S 04:00:13 80° E 04:06:27 10° N
Cosmos 2297 Rocket 3.6 03:56:17 10° W 04:00:16 19° NW 04:04:16 10° N
